Location: Unspecified
(0.0000°N, 0.0000°E)
Time: 17:06:03
(UTC+00:00)

Vanguard 3 - Pass Details

Date: 09 February 2023
Orbit: 509 x 3249 km, 33.3° (Epoch: 20 March)

Event Time Altitude Azimuth Distance (km) Brightness Sun altitude
Rises 00:00:56 0° 312° (NW) 6,172 - -74.8°
Reaches altitude 10° 00:04:37 10° 315° (NW) 5,437 - -75.0°
Maximum altitude 00:22:33 70° 37° (NE) 3,371 - -75.0°
Exits shadow 00:37:40 21° 115° (ESE) 5,027 11.1 -74.1°
Drops below altitude 10° 00:41:38 10° 118° (ESE) 5,759 11.5 -73.7°
Sets 00:45:38 0° 120° (ESE) 6,539 12.0 -73.3°
